This is the latest recevied weather packets stored in our database for station/object WD0REW. If no packets are shown the sender has not sent any weather packets the latest 10 day(s).
| Time | Temp. | Humidity | Pressure | Rain* | Wind** | Luminosity | Snow |
|---|---|---|---|---|---|---|---|
| 1777589345 | 18.33° C | 42% | 1016.4 hPa | 0 mm | - | 95 W/m² | - |
| 1777589042 | 18.33° C | 40% | 1016.4 hPa | 0 mm | - | 121 W/m² | - |
| 1777588738 | 18.33° C | 40% | 1016.4 hPa | 0 mm | - | 122 W/m² | - |
| 1777588434 | 18.33° C | 40% | 1016.5 hPa | 0 mm | - | 104 W/m² | - |
| 1777588129 | 18.33° C | 40% | 1016.4 hPa | 0 mm | - | 110 W/m² | - |
| 1777587826 | 18.33° C | 41% | 1016.4 hPa | 0 mm | - | 124 W/m² | - |
| 1777587525 | 18.33° C | 39% | 1016.5 hPa | 0 mm | - | 133 W/m² | - |
| 1777587221 | 18.89° C | 38% | 1016.2 hPa | 0 mm | - | 131 W/m² | - |
| 1777586917 | 18.89° C | 37% | 1016.4 hPa | 0 mm | - | 102 W/m² | - |
| 1777586613 | 18.89° C | 36% | 1016.3 hPa | 0 mm | - | 130 W/m² | - |
| 1777586309 | 18.89° C | 37% | 1016.4 hPa | 0 mm | - | 158 W/m² | - |
| 1777586007 | 19.44° C | 37% | 1016.5 hPa | 0 mm | - | 152 W/m² | - |
| 1777585702 | 19.44° C | 39% | 1016.5 hPa | 0 mm | - | 160 W/m² | - |
| 1777585402 | 18.89° C | 38% | 1016.4 hPa | 0 mm | - | 157 W/m² | - |
| 1777585102 | 18.89° C | 36% | 1016.5 hPa | 0 mm | - | 157 W/m² | - |
| 1777584798 | 18.89° C | 36% | 1016.5 hPa | 0 mm | - | 148 W/m² | - |
| 1777584497 | 19.44° C | 34% | 1016.6 hPa | 0 mm | - | 158 W/m² | - |
| 1777584193 | 19.44° C | 35% | 1016.7 hPa | 0 mm | - | 175 W/m² | - |
| 1777583892 | 19.44° C | 37% | 1016.6 hPa | 0 mm | - | 211 W/m² | - |
| 1777583588 | 19.44° C | 38% | 1016.8 hPa | 0 mm | - | 210 W/m² | - |
| 1777583287 | 19.44° C | 36% | 1017 hPa | 0 mm | - | 240 W/m² | - |
| 1777582982 | 19.44° C | 36% | 1017.1 hPa | 0 mm | - | 240 W/m² | - |
| 1777582680 | 19.44° C | 38% | 1017.1 hPa | 0 mm | - | 245 W/m² | - |
| 1777582380 | 19.44° C | 39% | 1017.4 hPa | 0 mm | - | 224 W/m² | - |
| 1777582078 | 19.44° C | 37% | 1017.2 hPa | 0 mm | - | 262 W/m² | - |
* Rain latest hour (hover to see other rain measurements)
** Current wind speed in m/s (hover to see current wind gust speed)